Regional Weather Roundup
Issued by NWS

Home | Current Version | Previous Version | Graphics & Text | Print | Product List | Glossary On
Versions: 1 2 3 4 5 6 7 8 9 10 11 12 13 14 15 16 17 18 19 20 21 22 23 24 25 26 27 28 29 30 31 32 33 34 35 36 37 38 39 40 41 42 43 44 45 46 47 48 49 50
834
ASUS45 KPSR 260210
RWRAZ

ARIZONA HOURLY REGIONAL WEATHER ROUNDUP
NATIONAL WEATHER SERVICE PHOENIX AZ
700 PM MST TUE JUL 25 2017

NOTE: FAIR INDICATES FEW OR NO CLOUDS BELOW 12,000 FEET WITH NO
SIGNIFICANT WEATHER AND/OR OBSTRUCTIONS TO VISIBILITY.

AZZ001>003-036-260300-
NORTHWEST ARIZONA

CITY           SKY/WX    TMP DP  RH WIND       PRES   REMARKS
KINGMAN        MOCLDY    73  66  78 N5        30.11R
$$

AZZ004>008-015-016-018-260300-
NORTH CENTRAL ARIZONA

CITY           SKY/WX    TMP DP  RH WIND       PRES   REMARKS
GRAND CANYON   PTCLDY    66  58  75 VRB7      30.31S
WILLIAMS       MOCLDY    68  55  64 S7G14     30.30F
PRESCOTT       PTCLDY    71  63  75 S5        30.21F
FLAGSTAFF      MOCLDY    65  59  81 SW7       30.33F
PAYSON         PTCLDY    73  64  73 NW6       30.24R
PAGE           CLEAR     79  62  56 NW8       30.10S
$$

AZZ009>014-017-260300-
NORTHEAST ARIZONA

CITY           SKY/WX    TMP DP  RH WIND       PRES   REMARKS
WINSLOW        PTCLDY    78  58  49 W20G25    30.16S
SAINT JOHNS    LGT RAIN  69  63  81 CALM      30.24R
WINDOW ROCK    PTCLDY    74  55  51 SW8       30.28R
SHOW LOW       MOCLDY    68  57  68 SW9       30.30R
$$

AZZ540-542>544-546-548-260300-
GREATER PHOENIX AREA

CITY           SKY/WX    TMP DP  RH WIND       PRES   REMARKS
PHOENIX        MOCLDY    98  59  27 NW9       29.86S
BUCKEYE        CLEAR     99  55  23 NW8       29.87S
GLENDALE       PTCLDY   100  59  25 CALM      29.88S HX 100
LUKE AFB       CLEAR     99  59  26 W3        29.86S
DEER VALLEY    CLEAR     97  58  27 W7        29.89S
SCOTTSDALE     CLEAR     97  58  27 NW5       29.91F
MESA-FALCON    MOCLDY    95  66  38 W9        29.90S
MESA-GATEWAY   PTCLDY    97  64  34 NW10      29.90S
$$

AZZ539-553-260300-
SOUTHWEST MARICOPA COUNTY AND PINAL COUNTY

CITY           SKY/WX    TMP DP  RH WIND       PRES   REMARKS
CASA GRANDE    CLEAR     97  64  33 N9        29.91R
GILA BEND      PTCLDY   101  54  20 NW10      29.83S
$$

AZZ503-504-507>509-260300-
SOUTHEAST ARIZONA

CITY           SKY/WX    TMP DP  RH WIND       PRES   REMARKS
TUCSON         PTCLDY    92  61  35 W5        30.01R
DAVIS-MONTHAN  CLEAR     92  61  34 W6        30.00R
RYAN FIELD     CLEAR     93  61  33 W3        29.99S
NOGALES        CLEAR     85  59  41 W6        30.11R
SIERRA VISTA   MOCLDY    82  61  48 NE7       30.18R
DOUGLAS        CLOUDY    80  63  55 E10       30.12R
SAFFORD        MOCLDY    86  69  56 W7        30.01S
$$

AZZ532-260300-
SOUTHWEST ARIZONA

CITY           SKY/WX    TMP DP  RH WIND       PRES   REMARKS
YUMA           CLEAR    101  39  12 S12       29.80S
$$

CAZ041-043-047-048-061-525>527-560>570-260300-
SOUTHERN CALIFORNIA

CITY           SKY/WX    TMP DP  RH WIND       PRES   REMARKS
DOWNTOWN L.A.  SUNNY     74  63  68 W6        29.95S
L.A. AIRPORT   MOSUNNY   70  64  81 W12       29.96S
SAN DIEGO      CLOUDY    72  63  73 W6        29.98F
BURBANK        SUNNY     76  58  53 S10       29.95R
ONTARIO        MOSUNNY   80  60  50 W12       29.95R
RIVERSIDE      CLEAR     80  62  54 W16       29.94S
PALM SPRINGS   CLEAR    102  59  24 VRB7      29.82F HX 102
EL CENTRO NAS  PTCLDY   101  52  19 S10       29.79S
IMPERIAL       PTCLDY   102  54  20 SE10      29.77S HX 100
BLYTHE         MOCLDY   104  52  17 S9        29.80F HX 101
NEEDLES        CLEAR     92  69  47 N10       29.88F
$$

NVZ020-UTZ003-260300-
SOUTHERN NEVADA-UTAH

CITY           SKY/WX    TMP DP  RH WIND       PRES   REMARKS
LAS VEGAS      PTCLDY    84  66  54 NE10      30.00S
SALT LAKE CITY MOCLDY    83  57  41 S8        30.05S
$$

NMZ009-TXZ055-260300-
NEW MEXICO-WEST TEXAS

CITY           SKY/WX    TMP DP  RH WIND       PRES   REMARKS
ALBUQUERQUE    MOCLDY    84  54  35 W5        30.18R
EL PASO        MOCLDY    90  57  32 SW6       30.06S
$$


........................KEY........................
SKY/WX - SKY CONDITION/WEATHER
TMP    - TEMPERATURE IN FAHRENHEIT
DP     - DEW POINT IN FAHRENHEIT
RH     - RELATIVE HUMIDITY IN PERCENT
WIND   - DIRECTION AND SPEED IN MILES PER HOUR (MPH)
VRB    - VARIABLE WIND DIRECTION
PRES   - MEAN SEA LEVEL PRESSURE IN INCHES OF MERCURY
         F - FALLING PRESSURE   R - RISING PRESSURE
         S - STEADY PRESSURE
VSB    - VISIBILITY IN MILES
HX     - HEAT INDEX IN FAHRENHEIT
WCI    - WIND CHILL INDEX IN FAHRENHEIT
TC     - TEMPERATURE IN CELSIUS WHICH IS ALSO KNOWN AS
         TEMPERATURE IN CENTIGRADE
AFB    - AIR FORCE BASE
         LUKE AFB IS LUKE AIR FORCE BASE
         DAVIS-MONTHAN IS DAVIS-MONTHAN AIR FORCE BASE
NAS    - NAVAL AIR STATION
         EL CENTRO NAS IS EL CENTRO NAVAL AIR STATION
N/A    - NOT AVAILABLE





USA.gov is the U.S. government's official web portal to all federal, state and local government web resources and services.